DG4CB-13 Weather Reports


time (UTC)temp
F
wind
direction
speed
knots
gust
knots
rain 1hr
in
rain 24hr
in
rain mn
in
humidity
%
barometer
mb
20260503054959 50 0.0 0.0 0.00 0.00 0.00 75 1012.8
20260503054000 50 0.0 0.0 0.00 0.00 0.00 76 1012.6
20260503053000 50 0.0 0.0 0.00 0.00 0.00 75 1012.5
20260503051000 50 0.0 0.0 0.00 0.00 0.00 74 1012.6
20260503045959 50 0.0 0.0 0.00 0.00 0.00 73 1012.9
20260503044959 49 0.0 0.0 0.00 0.00 0.00 73 1012.7
20260503043959 49 0.0 0.0 0.00 0.00 0.00 73 1012.5
20260503042959 49 0.0 0.0 0.00 0.00 0.00 71 1012.5
20260503041959 49 0.0 0.0 0.00 0.00 0.00 71 1012.5
20260503040959 50 0.0 0.0 0.00 0.00 0.00 71 1012.5
20260503035959 50 0.0 0.0 0.00 0.00 0.00 70 1012.9
20260503034959 50 0.0 0.0 0.00 0.00 0.00 70 1012.7
20260503033959 50 0.0 0.0 0.00 0.00 0.00 70 1012.8
20260503032959 51 0.0 0.0 0.00 0.00 0.00 70 1012.8
20260503031959 51 0.0 0.0 0.00 0.00 0.00 70 1012.8
20260503030959 51 0.0 0.0 0.00 0.00 0.00 70 1012.9
20260503025959 51 0.0 0.0 0.00 0.00 0.00 70 1012.9
20260503024959 52 0.0 0.0 0.00 0.00 0.00 70 1012.9
20260503023959 52 0.0 0.0 0.00 0.00 0.00 70 1013.0
20260503022959 52 0.0 0.0 0.00 0.00 0.00 70 1013.0
20260503022000 52 0.0 0.0 0.00 0.00 0.00 70 1013.0
20260503021000 52 0.0 0.0 0.00 0.00 0.00 70 1013.1
20260503015959 53 0.0 0.0 0.00 0.00 0.00 69 1013.1
20260503015000 53 0.0 0.0 0.00 0.00 0.00 67 1013.1
20260503014000 53 0.0 0.0 0.00 0.00 0.00 67 1013.1
20260503013000 54 0.0 0.0 0.00 0.00 0.00 67 1013.1
20260503012000 54 0.0 0.0 0.00 0.00 0.00 67 1013.2
20260503011000 54 0.0 0.0 0.00 0.00 0.00 67 1013.2
20260503010000 54 0.0 0.0 0.00 0.00 0.00 67 1013.3
20260503005000 54 0.0 0.0 0.00 0.00 0.00 67 1013.3
20260503004000 55 0.0 0.0 0.00 0.00 0.00 63 1013.4
20260503003000 55 0.0 0.0 0.00 0.00 0.00 63 1013.4
20260503002000 56 0.0 0.0 0.00 0.00 0.00 62 1013.4
20260503001000 56 0.0 0.0 0.00 0.00 0.00 62 1013.5
20260503000000 56 0.0 0.0 0.00 0.00 0.00 62 1013.7
20260502235000 56 0.0 0.0 0.00 0.00 0.00 61 1013.8
20260502234000 57 0.0 0.0 0.00 0.00 0.00 61 1013.8
20260502233000 57 0.0 0.0 0.00 0.00 0.00 60 1013.8
20260502232000 58 0.0 0.0 0.00 0.00 0.00 60 1013.8
20260502231000 58 0.0 0.0 0.00 0.00 0.00 59 1013.9
20260502230000 59 0.0 0.0 0.00 0.00 0.00 59 1014.1
20260502225000 59 0.0 0.0 0.00 0.00 0.00 59 1014.0
20260502224000 59 0.0 0.0 0.00 0.00 0.00 58 1013.9
20260502223000 60 0.0 0.0 0.00 0.00 0.00 58 1014.0
20260502222000 60 0.0 0.0 0.00 0.00 0.00 57 1013.9
20260502221000 61 0.0 0.0 0.00 0.00 0.00 57 1013.9
20260502220000 61 0.0 0.0 0.00 0.00 0.00 56 1013.9
20260502215000 62 0.0 0.0 0.00 0.00 0.00 56 1013.9
20260502214000 62 0.0 0.0 0.00 0.00 0.00 55 1014.0
20260502213000 63 0.0 0.0 0.00 0.00 0.00 55 1014.1
20260502212000 63 0.0 0.0 0.00 0.00 0.00 54 1014.1
20260502211000 64 0.0 0.0 0.00 0.00 0.00 54 1014.2
20260502210000 64 0.0 0.0 0.00 0.00 0.00 50 1014.2
20260502205000 65 0.0 0.0 0.00 0.00 0.00 50 1014.2
20260502204000 65 0.0 0.0 0.00 0.00 0.00 49 1014.4
20260502203000 66 0.0 0.0 0.00 0.00 0.00 48 1014.3
20260502202000 67 0.0 0.0 0.00 0.00 0.00 48 1014.3
20260502201000 67 0.0 0.0 0.00 0.00 0.00 47 1014.5
20260502200000 68 0.0 0.0 0.00 0.00 0.00 46 1014.5
20260502195000 68 0.0 0.0 0.00 0.00 0.00 46 1014.4
20260502194000 69 0.0 0.0 0.00 0.00 0.00 45 1014.5
20260502193000 70 0.0 0.0 0.00 0.00 0.00 44 1014.5
20260502192000 71 0.0 0.0 0.00 0.00 0.00 42 1014.4
20260502191000 72 0.0 0.0 0.00 0.00 0.00 42 1014.4
20260502190000 73 0.0 0.0 0.00 0.00 0.00 40 1014.5
20260502185000 74 0.0 0.0 0.00 0.00 0.00 39 1014.4
20260502184000 75 0.0 0.0 0.00 0.00 0.00 37 1014.3
20260502183000 76 0.0 0.0 0.00 0.00 0.00 36 1014.3
20260502182000 77 0.0 0.0 0.00 0.00 0.00 35 1014.3
20260502181000 78 0.0 0.0 0.00 0.00 0.00 34 1014.4
20260502164000 82 0.0 0.0 0.00 0.00 0.00 26 1014.5
20260502163000 82 0.0 0.0 0.00 0.00 0.00 29 1014.6
20260502162000 83 0.0 0.0 0.00 0.00 0.00 25 1014.7
20260502161000 83 0.0 0.0 0.00 0.00 0.00 25 1014.9
20260502152000 85 0.0 0.0 0.00 0.00 0.00 25 1015.5
20260502151000 85 0.0 0.0 0.00 0.00 0.00 25 1015.6
20260502122959 80 0.0 0.0 0.00 0.00 0.00 32 1017.4
20260502121959 80 0.0 0.0 0.00 0.00 0.00 31 1017.5
20260502120959 79 0.0 0.0 0.00 0.00 0.00 32 1017.6
20260502114959 79 0.0 0.0 0.00 0.00 0.00 32 1017.9
20260502113959 79 0.0 0.0 0.00 0.00 0.00 33 1018.1
20260502113000 78 0.0 0.0 0.00 0.00 0.00 32 1018.4
20260502111959 77 0.0 0.0 0.00 0.00 0.00 32 1018.4
20260502111007 77 0.0 0.0 0.00 0.00 0.00 33 1018.6
20260502105959 76 0.0 0.0 0.00 0.00 0.00 34 1018.7
20260502104959 75 0.0 0.0 0.00 0.00 0.00 34 1018.7
20260502103959 75 0.0 0.0 0.00 0.00 0.00 34 1018.8
20260502102959 75 0.0 0.0 0.00 0.00 0.00 34 1019.0
20260502101959 74 0.0 0.0 0.00 0.00 0.00 35 1019.1
20260502100959 74 0.0 0.0 0.00 0.00 0.00 36 1019.3
20260502090959 68 0.0 0.0 0.00 0.00 0.00 41 1019.9
20260502070003 53 0.0 0.0 0.00 0.00 0.00 64 1020.5
20260502065001 51 0.0 0.0 0.00 0.00 0.00 65 1020.6
20260502064001 50 0.0 0.0 0.00 0.00 0.00 66 1020.5
20260502062959 49 0.0 0.0 0.00 0.00 0.00 66 1020.6
20260502062002 48 0.0 0.0 0.00 0.00 0.00 66 1020.7
20260502060959 48 0.0 0.0 0.00 0.00 0.00 66 1020.8
20260502055959 47 0.0 0.0 0.00 0.00 0.00 67 1020.9